Time,TemperatureF,DewpointF,PressureIn,WindDirection,WindDirectionDegrees,WindSpeedMPH,WindSpeedGustMPH,Humidity,HourlyPrecipIn,Conditions,Clouds,dailyrainin,SoftwareType,DateUTC
2013-07-02 00:03:00,51.1,51.1,30.06,East,90,0.0,0.0,100,-99.99,,,-99.99,WSDL version 420,2013-07-01 14:03:00,
2013-07-02 00:08:00,50.9,50.9,30.06,ESE,113,0.0,0.0,100,-99.99,,,-99.99,WSDL version 420,2013-07-01 14:08:00,
2013-07-02 00:13:00,50.9,50.9,30.06,ESE,120,0.0,0.0,100,-99.99,,,-99.99,WSDL version 420,2013-07-01 14:13:00,
2013-07-02 00:18:00,50.9,50.9,30.06,ESE,113,0.0,0.0,100,-99.99,,,-99.99,WSDL version 420,2013-07-01 14:18:00,
2013-07-02 00:23:00,50.9,50.9,30.06,ESE,113,0.0,0.0,100,-99.99,,,-99.99,WSDL version 420,2013-07-01 14:23:00,
2013-07-02 00:28:00,50.9,50.9,30.06,East,87,0.0,0.0,100,-99.99,,,-99.99,WSDL version 420,2013-07-01 14:28:00,
2013-07-02 00:33:00,50.8,50.8,30.06,SSW,198,0.0,0.0,100,-99.99,,,-99.99,WSDL version 420,2013-07-01 14:33:00,
2013-07-02 00:38:00,50.9,50.9,30.06,SE,135,0.0,0.0,100,-99.99,,,-99.99,WSDL version 420,2013-07-01 14:38:00,
2013-07-02 00:43:00,51.2,51.2,30.06,SW,225,0.0,0.0,100,-99.99,,,-99.99,WSDL version 420,2013-07-01 14:43:00,
2013-07-02 00:48:00,51.3,51.3,30.06,SW,225,0.0,0.0,100,-99.99,,,-99.99,WSDL version 420,2013-07-01 14:48:00,
2013-07-02 00:53:00,51.3,51.3,30.03,SW,225,0.0,0.0,100,-99.99,,,-99.99,WSDL version 420,2013-07-01 14:53:00,
2013-07-02 00:58:00,51.1,51.1,30.03,SW,225,0.0,0.0,100,-99.99,,,-99.99,WSDL version 420,2013-07-01 14:58:00,
2013-07-02 01:03:00,51.0,51.0,30.03,SW,225,0.0,0.0,100,-99.99,,,-99.99,WSDL version 420,2013-07-01 15:03:00,
2013-07-02 01:08:00,50.9,50.9,30.03,SSE,158,0.0,0.0,100,-99.99,,,-99.99,WSDL version 420,2013-07-01 15:08:00,
2013-07-02 01:13:00,50.9,50.9,30.03,ENE,74,0.0,0.0,100,-99.99,,,-99.99,WSDL version 420,2013-07-01 15:13:00,
2013-07-02 01:18:00,50.7,50.7,30.03,ENE,62,0.0,0.0,100,-99.99,,,-99.99,WSDL version 420,2013-07-01 15:18:00,
2013-07-02 01:23:00,50.7,50.7,30.03,SSE,161,0.0,0.0,100,-99.99,,,-99.99,WSDL version 420,2013-07-01 15:23:00,
2013-07-02 01:28:00,50.7,50.7,30.03,NW,321,0.0,0.0,100,-99.99,,,-99.99,WSDL version 420,2013-07-01 15:28:00,
2013-07-02 01:33:00,50.7,50.7,30.03,SW,214,0.0,0.0,100,-99.99,,,-99.99,WSDL version 420,2013-07-01 15:33:00,
2013-07-02 01:38:00,50.7,50.7,30.03,WNW,296,0.0,0.0,100,-99.99,,,-99.99,WSDL version 420,2013-07-01 15:38:00,
2013-07-02 01:43:00,50.7,50.7,30.03,South,186,0.0,0.0,100,-99.99,,,-99.99,WSDL version 420,2013-07-01 15:43:00,
2013-07-02 01:48:00,50.6,50.6,30.03,South,177,0.0,0.0,100,-99.99,,,-99.99,WSDL version 420,2013-07-01 15:48:00,
2013-07-02 01:53:00,50.5,50.5,30.03,WSW,248,0.0,0.0,100,-99.99,,,-99.99,WSDL version 420,2013-07-01 15:53:00,
2013-07-02 01:58:00,50.5,50.5,30.03,South,180,0.0,0.0,100,-99.99,,,-99.99,WSDL version 420,2013-07-01 15:58:00,
2013-07-02 02:03:00,50.4,50.4,30.03,SSE,158,0.0,0.0,100,-99.99,,,-99.99,WSDL version 420,2013-07-01 16:03:00,
2013-07-02 02:08:00,50.2,50.2,30.03,SSE,164,0.0,0.0,100,-99.99,,,-99.99,WSDL version 420,2013-07-01 16:08:00,
2013-07-02 02:13:00,50.2,50.2,30.03,NW,304,0.3,1.6,100,-99.99,,,-99.99,WSDL version 420,2013-07-01 16:13:00,
2013-07-02 02:18:00,50.4,50.4,30.03,WNW,301,0.0,1.6,100,-99.99,,,-99.99,WSDL version 420,2013-07-01 16:18:00,
2013-07-02 02:23:00,50.6,50.6,30.03,WNW,298,0.3,2.5,100,-99.99,,,-99.99,WSDL version 420,2013-07-01 16:23:00,
2013-07-02 02:28:00,50.9,50.9,30.03,WNW,299,0.0,2.5,100,-99.99,,,-99.99,WSDL version 420,2013-07-01 16:28:00,
2013-07-02 02:33:00,51.0,51.0,30.03,West,263,0.5,3.1,100,-99.99,,,-99.99,WSDL version 420,2013-07-01 16:33:00,
2013-07-02 02:38:00,51.3,51.3,30.03,WNW,296,0.0,3.1,100,-99.99,,,-99.99,WSDL version 420,2013-07-01 16:38:00,
2013-07-02 02:43:00,51.4,51.4,30.03,WNW,287,0.6,3.6,100,-99.99,,,-99.99,WSDL version 420,2013-07-01 16:43:00,
2013-07-02 02:48:00,-999.0,-99.9,30.03,WNW,283,1.2,4.9,-999,-99.99,,,-99.99,WSDL version 420,2013-07-01 16:48:00,
2013-07-02 02:53:00,51.3,51.3,30.00,NNW,331,1.8,4.9,100,-99.99,,,-99.99,WSDL version 420,2013-07-01 16:53:00,
2013-07-02 02:58:00,51.3,51.3,30.00,NW,304,1.6,3.4,100,-99.99,,,-99.99,WSDL version 420,2013-07-01 16:58:00,
2013-07-02 03:03:00,51.1,51.1,30.00,NW,308,0.8,3.1,100,-99.99,,,-99.99,WSDL version 420,2013-07-01 17:03:00,
2013-07-02 03:08:00,51.1,51.1,30.00,NW,326,0.4,4.0,100,-99.99,,,-99.99,WSDL version 420,2013-07-01 17:08:00,
2013-07-02 03:13:00,50.9,50.9,30.00,North,357,0.0,4.0,100,-99.99,,,-99.99,WSDL version 420,2013-07-01 17:13:00,
2013-07-02 03:18:00,50.9,50.9,30.00,WNW,286,2.1,3.6,100,-99.99,,,-99.99,WSDL version 420,2013-07-01 17:18:00,
2013-07-02 03:23:00,50.8,50.8,30.03,SW,214,0.3,3.6,100,-99.99,,,-99.99,WSDL version 420,2013-07-01 17:23:00,
2013-07-02 03:28:00,50.5,50.5,30.03,South,188,1.6,2.7,100,-99.99,,,-99.99,WSDL version 420,2013-07-01 17:28:00,
2013-07-02 03:33:00,50.3,50.3,30.03,WSW,253,0.8,2.7,100,-99.99,,,-99.99,WSDL version 420,2013-07-01 17:33:00,
2013-07-02 03:38:00,50.1,50.1,30.03,WNW,302,0.1,2.5,100,-99.99,,,-99.99,WSDL version 420,2013-07-01 17:38:00,
2013-07-02 03:43:00,50.1,50.1,30.03,SW,228,1.4,2.9,100,-99.99,,,-99.99,WSDL version 420,2013-07-01 17:43:00,
2013-07-02 03:48:00,50.0,50.0,30.03,West,278,0.3,3.6,100,-99.99,,,-99.99,WSDL version 420,2013-07-01 17:48:00,
2013-07-02 03:53:00,50.0,50.0,30.03,SSE,167,0.0,3.6,100,-99.99,,,-99.99,WSDL version 420,2013-07-01 17:53:00,
2013-07-02 03:58:00,49.7,49.7,30.03,NE,48,0.3,2.2,100,-99.99,,,-99.99,WSDL version 420,2013-07-01 17:58:00,
2013-07-02 04:03:00,49.5,49.5,30.03,NNW,331,0.6,2.9,100,-99.99,,,-99.99,WSDL version 420,2013-07-01 18:03:00,
2013-07-02 04:08:00,49.5,49.5,30.03,NNW,335,1.3,2.9,100,-99.99,,,-99.99,WSDL version 420,2013-07-01 18:08:00,
2013-07-02 04:13:00,49.5,49.5,30.03,NW,309,0.2,2.9,100,-99.99,,,-99.99,WSDL version 420,2013-07-01 18:13:00,
2013-07-02 04:18:00,49.4,49.4,30.03,NW,321,0.0,2.9,100,-99.99,,,-99.99,WSDL version 420,2013-07-01 18:18:00,
2013-07-02 04:23:00,49.2,49.2,30.03,WSW,252,0.0,1.1,100,-99.99,,,-99.99,WSDL version 420,2013-07-01 18:23:00,
2013-07-02 04:33:00,48.9,48.9,30.03,SW,219,0.0,1.3,100,-99.99,,,-99.99,WSDL version 420,2013-07-01 18:33:00,
2013-07-02 04:38:00,48.7,48.7,30.03,SSE,158,0.0,1.1,100,-99.99,,,-99.99,WSDL version 420,2013-07-01 18:38:00,
2013-07-02 04:43:00,48.4,48.4,30.03,SE,135,0.0,1.1,100,-99.99,,,-99.99,WSDL version 420,2013-07-01 18:43:00,
2013-07-02 04:48:00,48.2,48.2,30.03,ENE,76,0.0,1.3,100,-99.99,,,-99.99,WSDL version 420,2013-07-01 18:48:00,
2013-07-02 04:53:00,48.0,48.0,30.03,SW,215,0.3,1.3,100,-99.99,,,-99.99,WSDL version 420,2013-07-01 18:53:00,
2013-07-02 04:58:00,48.0,48.0,30.03,East,90,0.4,2.0,100,-99.99,,,-99.99,WSDL version 420,2013-07-01 18:58:00,
2013-07-02 05:03:00,48.0,48.0,30.03,ESE,109,0.0,2.0,100,-99.99,,,-99.99,WSDL version 420,2013-07-01 19:03:00,
2013-07-02 05:08:00,47.9,47.9,30.03,East,79,0.0,0.0,100,-99.99,,,-99.99,WSDL version 420,2013-07-01 19:08:00,
2013-07-02 05:13:00,48.0,48.0,30.03,South,180,0.0,0.0,100,-99.99,,,-99.99,WSDL version 420,2013-07-01 19:13:00,
2013-07-02 05:18:00,48.0,48.0,30.03,SE,135,0.7,2.0,100,-99.99,,,-99.99,WSDL version 420,2013-07-01 19:18:00,
2013-07-02 05:23:00,48.0,48.0,30.03,West,264,0.0,2.0,100,-99.99,,,-99.99,WSDL version 420,2013-07-01 19:23:00,
2013-07-02 05:28:00,48.0,48.0,30.03,East,96,0.0,1.3,100,-99.99,,,-99.99,WSDL version 420,2013-07-01 19:28:00,
2013-07-02 05:38:00,48.0,48.0,30.03,SW,225,0.0,1.3,100,-99.99,,,-99.99,WSDL version 420,2013-07-01 19:38:00,
2013-07-02 05:43:00,47.8,47.8,30.03,ESE,107,0.0,1.3,100,-99.99,,,-99.99,WSDL version 420,2013-07-01 19:43:00,
2013-07-02 05:48:00,47.8,47.8,30.03,West,270,0.0,1.3,100,-99.99,,,-99.99,WSDL version 420,2013-07-01 19:48:00,
2013-07-02 05:53:00,48.0,48.0,30.03,WNW,296,0.0,1.3,100,-99.99,,,-99.99,WSDL version 420,2013-07-01 19:53:00,
2013-07-02 05:58:00,48.2,48.2,30.03,East,96,0.0,1.3,100,-99.99,,,-99.99,WSDL version 420,2013-07-01 19:58:00,
2013-07-02 06:03:00,48.4,48.4,30.03,SE,145,0.0,0.0,100,-99.99,,,-99.99,WSDL version 420,2013-07-01 20:03:00,
2013-07-02 06:08:00,48.6,48.6,30.06,West,280,0.0,0.0,100,-99.99,,,-99.99,WSDL version 420,2013-07-01 20:08:00,
2013-07-02 06:13:00,48.7,48.7,30.06,ESE,113,0.0,2.0,100,-99.99,,,-99.99,WSDL version 420,2013-07-01 20:13:00,
2013-07-02 06:18:00,48.7,48.7,30.06,SE,128,0.0,2.0,100,-99.99,,,-99.99,WSDL version 420,2013-07-01 20:18:00,
2013-07-02 06:23:00,48.8,48.8,30.06,NE,39,0.0,0.0,100,-99.99,,,-99.99,WSDL version 420,2013-07-01 20:23:00,
2013-07-02 06:28:00,48.9,48.9,30.06,East,87,0.0,0.0,100,-99.99,,,-99.99,WSDL version 420,2013-07-01 20:28:00,
2013-07-02 06:33:00,49.1,49.1,30.06,North,349,0.0,0.0,100,-99.99,,,-99.99,WSDL version 420,2013-07-01 20:33:00,
2013-07-02 06:38:00,49.1,49.1,30.06,WNW,301,0.0,0.0,100,-99.99,,,-99.99,WSDL version 420,2013-07-01 20:38:00,
2013-07-02 06:43:00,49.2,49.2,30.06,SE,146,0.0,0.0,100,-99.99,,,-99.99,WSDL version 420,2013-07-01 20:43:00,
2013-07-02 06:48:00,49.3,49.3,30.06,West,260,0.5,1.6,100,-99.99,,,-99.99,WSDL version 420,2013-07-01 20:48:00,
2013-07-02 06:53:00,49.3,49.3,30.06,NE,45,0.0,1.6,100,-99.99,,,-99.99,WSDL version 420,2013-07-01 20:53:00,
2013-07-02 06:58:00,49.5,49.5,30.06,SE,141,1.0,2.5,100,-99.99,,,-99.99,WSDL version 420,2013-07-01 20:58:00,
2013-07-02 07:03:00,49.8,49.8,30.06,SSW,212,0.0,2.5,100,-99.99,,,-99.99,WSDL version 420,2013-07-01 21:03:00,
2013-07-02 07:08:00,50.0,50.0,30.06,West,270,1.2,3.4,100,-99.99,,,-99.99,WSDL version 420,2013-07-01 21:08:00,
2013-07-02 07:13:00,50.2,50.2,30.06,ESE,109,0.3,3.4,100,-99.99,,,-99.99,WSDL version 420,2013-07-01 21:13:00,
2013-07-02 07:18:00,50.2,50.2,30.06,SE,141,0.3,2.7,100,-99.99,,,-99.99,WSDL version 420,2013-07-01 21:18:00,
2013-07-02 07:23:00,50.5,50.4,30.09,West,266,0.0,2.2,100,-99.99,,,-99.99,WSDL version 420,2013-07-01 21:23:00,
2013-07-02 07:28:00,50.6,50.6,30.09,SSE,155,0.1,1.6,100,-99.99,,,-99.99,WSDL version 420,2013-07-01 21:28:00,
2013-07-02 07:33:00,50.7,50.7,30.09,ESE,105,0.0,1.6,100,-99.99,,,-99.99,WSDL version 420,2013-07-01 21:33:00,
2013-07-02 07:43:00,51.3,51.3,30.09,WNW,283,0.3,2.7,100,-99.99,,,-99.99,WSDL version 420,2013-07-01 21:43:00,
2013-07-02 07:48:00,51.4,51.4,30.09,South,170,0.0,2.7,100,-99.99,,,-99.99,WSDL version 420,2013-07-01 21:48:00,
2013-07-02 07:53:00,51.6,51.6,30.09,North,354,0.3,2.2,100,-99.99,,,-99.99,WSDL version 420,2013-07-01 21:53:00,
2013-07-02 07:58:00,51.7,51.7,30.09,WNW,284,1.1,2.2,100,-99.99,,,-99.99,WSDL version 420,2013-07-01 21:58:00,
2013-07-02 08:03:00,52.1,52.1,30.09,WNW,302,0.0,2.0,100,-99.99,,,-99.99,WSDL version 420,2013-07-01 22:03:00,
2013-07-02 08:08:00,52.7,52.7,30.09,NW,315,0.0,1.3,100,-99.99,,,-99.99,WSDL version 420,2013-07-01 22:08:00,
2013-07-02 08:13:00,53.1,53.1,30.09,WNW,293,0.8,2.9,100,-99.99,,,-99.99,WSDL version 420,2013-07-01 22:13:00,
2013-07-02 08:18:00,55.4,55.4,30.09,NW,304,2.7,3.6,100,-99.99,,,-99.99,WSDL version 420,2013-07-01 22:18:00,
2013-07-02 08:23:00,57.0,57.0,30.09,NW,325,2.7,3.8,100,-99.99,,,-99.99,WSDL version 420,2013-07-01 22:23:00,
2013-07-02 08:28:00,57.7,57.7,30.09,WNW,289,2.5,3.8,100,-99.99,,,-99.99,WSDL version 420,2013-07-01 22:28:00,
2013-07-02 08:33:00,57.2,57.2,30.09,ESE,113,1.7,3.8,100,-99.99,,,-99.99,WSDL version 420,2013-07-01 22:33:00,
2013-07-02 08:38:00,56.5,56.5,30.09,WNW,289,2.4,4.9,100,-99.99,,,-99.99,WSDL version 420,2013-07-01 22:38:00,
2013-07-02 08:43:00,57.7,57.4,30.09,West,276,2.4,5.4,97,-99.99,,,-99.99,WSDL version 420,2013-07-01 22:43:00,
2013-07-02 08:48:00,58.1,56.2,30.09,WNW,285,3.1,5.4,92,-99.99,,,-99.99,WSDL version 420,2013-07-01 22:48:00,
2013-07-02 08:53:00,57.0,54.0,30.09,NW,305,2.2,5.4,89,-99.99,,,-99.99,WSDL version 420,2013-07-01 22:53:00,
2013-07-02 08:58:00,56.7,53.4,30.09,NW,305,2.1,3.8,89,-99.99,,,-99.99,WSDL version 420,2013-07-01 22:58:00,
2013-07-02 09:03:00,56.5,52.7,30.09,North,3,1.8,3.8,88,-99.99,,,-99.99,WSDL version 420,2013-07-01 23:03:00,
2013-07-02 09:08:00,56.5,52.8,30.09,North,6,2.2,3.6,87,-99.99,,,-99.99,WSDL version 420,2013-07-01 23:08:00,
2013-07-02 09:13:00,56.6,53.0,30.09,West,276,2.2,3.4,88,-99.99,,,-99.99,WSDL version 420,2013-07-01 23:13:00,
2013-07-02 09:18:00,56.7,53.1,30.09,NW,309,1.6,3.4,88,-99.99,,,-99.99,WSDL version 420,2013-07-01 23:18:00,
2013-07-02 09:23:00,57.2,53.7,30.06,NNW,343,1.9,3.4,88,-99.99,,,-99.99,WSDL version 420,2013-07-01 23:23:00,
2013-07-02 09:28:00,58.8,54.9,30.06,WNW,285,3.4,4.7,84,-99.99,,,-99.99,WSDL version 420,2013-07-01 23:28:00,
2013-07-02 09:33:00,60.2,53.2,30.06,WNW,293,4.2,6.7,74,-99.99,,,-99.99,WSDL version 420,2013-07-01 23:33:00,
2013-07-02 09:38:00,60.6,52.1,30.09,NW,309,4.0,6.7,73,-99.99,,,-99.99,WSDL version 420,2013-07-01 23:38:00,
2013-07-02 09:43:00,61.1,52.1,30.09,West,274,3.2,6.3,72,-99.99,,,-99.99,WSDL version 420,2013-07-01 23:43:00,
2013-07-02 09:48:00,61.7,52.3,30.09,WNW,289,4.2,8.1,70,-99.99,,,-99.99,WSDL version 420,2013-07-01 23:48:00,
2013-07-02 09:53:00,62.0,51.6,30.09,NW,326,3.1,8.1,68,-99.99,,,-99.99,WSDL version 420,2013-07-01 23:53:00,
2013-07-02 09:58:00,62.4,50.9,30.09,WNW,283,4.3,6.5,65,-99.99,,,-99.99,WSDL version 420,2013-07-01 23:58:00,
2013-07-02 10:03:00,62.8,51.4,30.09,NW,325,2.7,6.0,67,-99.99,,,-99.99,WSDL version 420,2013-07-02 00:03:00,
2013-07-02 10:08:00,64.1,52.9,30.09,NW,325,2.5,4.0,66,-99.99,,,-99.99,WSDL version 420,2013-07-02 00:08:00,
2013-07-02 10:13:00,64.2,51.6,30.09,WNW,300,4.0,7.6,63,-99.99,,,-99.99,WSDL version 420,2013-07-02 00:13:00,
2013-07-02 10:18:00,64.5,52.0,30.09,NW,325,2.5,7.6,64,-99.99,,,-99.99,WSDL version 420,2013-07-02 00:18:00,
2013-07-02 10:23:00,-999.0,-99.9,30.09,NW,311,3.1,7.2,-999,-99.99,,,-99.99,WSDL version 420,2013-07-02 00:23:00,
2013-07-02 10:28:00,65.2,51.9,30.09,ENE,68,2.9,7.2,61,-99.99,,,-99.99,WSDL version 420,2013-07-02 00:28:00,
2013-07-02 10:33:00,64.6,51.0,30.09,NW,326,3.5,6.0,62,-99.99,,,-99.99,WSDL version 420,2013-07-02 00:33:00,
2013-07-02 10:38:00,63.8,50.8,30.09,WNW,301,3.0,6.0,64,-99.99,,,-99.99,WSDL version 420,2013-07-02 00:38:00,
2013-07-02 10:43:00,64.7,52.6,30.09,NW,307,2.0,5.4,65,-99.99,,,-99.99,WSDL version 420,2013-07-02 00:43:00,
2013-07-02 10:48:00,64.7,51.9,30.09,WNW,300,4.0,6.5,62,-99.99,,,-99.99,WSDL version 420,2013-07-02 00:48:00,
2013-07-02 10:53:00,64.1,51.0,30.09,WNW,284,3.6,6.5,63,-99.99,,,-99.99,WSDL version 420,2013-07-02 00:53:00,
2013-07-02 10:58:00,63.8,51.4,30.09,NW,309,2.3,6.0,65,-99.99,,,-99.99,WSDL version 420,2013-07-02 00:58:00,
2013-07-02 11:03:00,63.9,52.2,30.09,WNW,293,1.8,4.7,66,-99.99,,,-99.99,WSDL version 420,2013-07-02 01:03:00,
2013-07-02 11:08:00,64.3,52.3,30.09,WNW,287,2.7,4.0,65,-99.99,,,-99.99,WSDL version 420,2013-07-02 01:08:00,
2013-07-02 11:13:00,64.6,52.2,30.09,WNW,295,3.6,6.9,64,-99.99,,,-99.99,WSDL version 420,2013-07-02 01:13:00,
2013-07-02 11:18:00,65.3,52.1,30.09,NW,324,4.7,8.5,62,-99.99,,,-99.99,WSDL version 420,2013-07-02 01:18:00,
2013-07-02 11:23:00,65.4,52.5,30.06,NW,312,3.2,8.5,63,-99.99,,,-99.99,WSDL version 420,2013-07-02 01:23:00,
2013-07-02 11:28:00,66.3,53.1,30.06,West,280,2.7,6.3,62,-99.99,,,-99.99,WSDL version 420,2013-07-02 01:28:00,
2013-07-02 11:33:00,67.6,53.8,30.06,NW,318,3.6,6.3,59,-99.99,,,-99.99,WSDL version 420,2013-07-02 01:33:00,
2013-07-02 11:38:00,-999.0,-99.9,30.06,NNW,338,2.0,5.8,-999,-99.99,,,-99.99,WSDL version 420,2013-07-02 01:38:00,
2013-07-02 11:43:00,68.4,54.1,30.06,WNW,302,2.7,4.9,59,-99.99,,,-99.99,WSDL version 420,2013-07-02 01:43:00,
2013-07-02 11:48:00,68.3,53.5,30.06,NW,305,2.6,4.9,59,-99.99,,,-99.99,WSDL version 420,2013-07-02 01:48:00,
2013-07-02 11:53:00,68.6,53.0,30.03,WNW,295,3.9,7.6,58,-99.99,,,-99.99,WSDL version 420,2013-07-02 01:53:00,
2013-07-02 11:58:00,69.2,53.8,30.03,WSW,239,3.0,7.6,57,-99.99,,,-99.99,WSDL version 420,2013-07-02 01:58:00,
2013-07-02 12:03:00,69.6,53.4,30.03,WNW,300,2.9,5.6,57,-99.99,,,-99.99,WSDL version 420,2013-07-02 02:03:00,
2013-07-02 12:08:00,69.1,52.8,30.06,WNW,301,3.5,6.3,57,1.28,,,1.28,WSDL version 420,2013-07-02 02:08:00,
2013-07-02 12:13:00,69.6,53.7,30.06,NW,315,2.1,6.3,57,-99.99,,,-99.99,WSDL version 420,2013-07-02 02:13:00,
2013-07-02 12:18:00,69.2,52.4,30.06,NW,304,3.1,6.3,56,-99.99,,,-99.99,WSDL version 420,2013-07-02 02:18:00,
2013-07-02 12:23:00,-999.0,-99.9,30.06,NNW,341,2.2,4.9,-999,1.28,,,1.28,WSDL version 420,2013-07-02 02:23:00,
2013-07-02 12:28:00,68.5,53.1,30.06,NNW,338,2.6,4.7,58,1.28,,,1.28,WSDL version 420,2013-07-02 02:28:00,
2013-07-02 12:33:00,68.3,52.9,30.06,WSW,251,2.7,5.4,57,-99.99,,,-99.99,WSDL version 420,2013-07-02 02:33:00,
2013-07-02 12:38:00,68.1,53.0,30.03,ENE,64,2.5,5.4,58,-99.99,,,-99.99,WSDL version 420,2013-07-02 02:38:00,
2013-07-02 12:43:00,67.9,52.8,30.03,WNW,284,3.0,4.3,59,-99.99,,,-99.99,WSDL version 420,2013-07-02 02:43:00,
2013-07-02 12:48:00,69.1,53.9,30.03,West,266,3.2,5.6,57,-99.99,,,-99.99,WSDL version 420,2013-07-02 02:48:00,
2013-07-02 12:53:00,69.7,53.5,30.03,West,276,3.7,7.4,54,1.28,,,1.28,WSDL version 420,2013-07-02 02:53:00,
2013-07-02 12:58:00,68.8,52.5,30.03,NE,35,0.4,7.4,57,1.28,,,1.28,WSDL version 420,2013-07-02 02:58:00,
2013-07-02 13:03:00,69.0,53.1,30.03,West,270,3.9,5.8,55,1.28,,,1.28,WSDL version 420,2013-07-02 03:03:00,
2013-07-02 13:08:00,69.7,53.0,30.03,WNW,289,3.7,5.8,55,-99.99,,,-99.99,WSDL version 420,2013-07-02 03:08:00,
2013-07-02 13:13:00,69.5,52.6,30.03,NNW,329,3.4,5.6,56,0.00,,,1.28,WSDL version 420,2013-07-02 03:13:00,
2013-07-02 13:18:00,69.1,52.8,30.03,SW,219,2.4,5.6,56,0.00,,,1.28,WSDL version 420,2013-07-02 03:18:00,
2013-07-02 13:23:00,68.1,51.8,30.03,ENE,68,2.8,5.6,57,-99.99,,,-99.99,WSDL version 420,2013-07-02 03:23:00,
2013-07-02 13:28:00,68.0,52.2,30.03,West,270,3.0,4.9,56,-99.99,,,-99.99,WSDL version 420,2013-07-02 03:28:00,
2013-07-02 13:33:00,68.0,52.3,30.03,South,174,1.7,4.9,58,-99.99,,,-99.99,WSDL version 420,2013-07-02 03:33:00,
2013-07-02 13:43:00,67.9,53.1,30.03,SSW,206,2.2,3.6,59,-99.99,,,-99.99,WSDL version 420,2013-07-02 03:43:00,
2013-07-02 13:48:00,67.8,52.9,30.03,East,93,1.4,3.4,59,-99.99,,,-99.99,WSDL version 420,2013-07-02 03:48:00,
2013-07-02 13:53:00,67.7,52.8,30.03,ENE,64,1.6,3.6,59,0.00,,,1.28,WSDL version 420,2013-07-02 03:53:00,
2013-07-02 13:58:00,67.6,52.9,30.03,ESE,110,1.2,3.6,60,0.00,,,1.28,WSDL version 420,2013-07-02 03:58:00,
2013-07-02 14:03:00,68.5,53.2,30.03,East,96,2.3,3.1,56,0.00,,,1.28,WSDL version 420,2013-07-02 04:03:00,
2013-07-02 14:08:00,69.5,53.5,30.03,NNE,28,2.2,4.0,56,-99.99,,,-99.99,WSDL version 420,2013-07-02 04:08:00,
2013-07-02 14:13:00,71.2,54.5,30.03,ENE,60,1.0,4.0,55,0.00,,,1.28,WSDL version 420,2013-07-02 04:13:00,
2013-07-02 14:18:00,71.7,54.4,30.03,North,353,2.3,4.3,52,0.00,,,1.28,WSDL version 420,2013-07-02 04:18:00,
2013-07-02 14:23:00,71.6,52.8,30.03,SE,129,2.5,4.3,50,0.00,,,1.28,WSDL version 420,2013-07-02 04:23:00,
2013-07-02 14:28:00,71.8,52.3,30.03,ESE,116,1.2,4.0,51,0.00,,,1.28,WSDL version 420,2013-07-02 04:28:00,
2013-07-02 14:33:00,72.7,53.5,30.03,ESE,103,1.4,4.0,50,0.00,,,1.28,WSDL version 420,2013-07-02 04:33:00,
2013-07-02 14:38:00,72.1,52.0,30.03,NE,45,2.6,3.1,49,0.00,,,1.28,WSDL version 420,2013-07-02 04:38:00,
2013-07-02 14:43:00,71.3,51.5,30.03,South,188,2.3,3.4,49,0.00,,,1.28,WSDL version 420,2013-07-02 04:43:00,
2013-07-02 14:48:00,71.2,51.6,30.03,East,80,1.5,3.4,49,0.00,,,1.28,WSDL version 420,2013-07-02 04:48:00,
2013-07-02 14:53:00,70.4,51.1,30.03,East,84,1.6,3.1,50,0.00,,,1.28,WSDL version 420,2013-07-02 04:53:00,
2013-07-02 14:58:00,70.0,51.0,30.03,South,184,1.0,3.1,52,0.00,,,1.28,WSDL version 420,2013-07-02 04:58:00,
2013-07-02 15:03:00,69.0,50.7,30.03,SSW,209,2.1,4.0,52,0.00,,,1.28,WSDL version 420,2013-07-02 05:03:00,
2013-07-02 15:08:00,68.1,50.6,30.03,ENE,72,1.7,4.0,54,0.00,,,1.28,WSDL version 420,2013-07-02 05:08:00,
2013-07-02 15:13:00,67.1,50.7,30.03,ENE,61,2.7,4.3,56,-99.99,,,-99.99,WSDL version 420,2013-07-02 05:13:00,
2013-07-02 15:18:00,66.2,51.5,30.03,NNE,19,2.5,4.3,60,0.00,,,1.28,WSDL version 420,2013-07-02 05:18:00,
2013-07-02 15:23:00,66.8,53.4,30.03,East,100,1.3,4.3,63,0.00,,,1.28,WSDL version 420,2013-07-02 05:23:00,
2013-07-02 15:28:00,67.8,54.7,30.03,SSE,154,0.8,2.7,62,0.00,,,1.28,WSDL version 420,2013-07-02 05:28:00,
2013-07-02 15:33:00,68.7,54.5,30.03,ENE,77,2.3,3.8,60,0.00,,,1.28,WSDL version 420,2013-07-02 05:33:00,
2013-07-02 15:38:00,68.8,54.0,30.03,SE,143,2.1,3.8,59,0.00,,,1.28,WSDL version 420,2013-07-02 05:38:00,
2013-07-02 15:43:00,69.2,54.3,30.03,ESE,122,1.0,3.6,59,0.00,,,1.28,WSDL version 420,2013-07-02 05:43:00,
2013-07-02 15:48:00,68.8,53.0,30.03,ENE,77,2.2,4.0,57,0.00,,,1.28,WSDL version 420,2013-07-02 05:48:00,
2013-07-02 15:53:00,68.9,53.8,30.03,SE,124,0.1,4.0,59,0.00,,,1.28,WSDL version 420,2013-07-02 05:53:00,
2013-07-02 15:58:00,69.4,54.2,30.03,NE,49,1.8,2.9,57,0.00,,,1.28,WSDL version 420,2013-07-02 05:58:00,
2013-07-02 16:03:00,68.9,53.7,30.03,SW,230,1.3,2.5,59,0.00,,,1.28,WSDL version 420,2013-07-02 06:03:00,
2013-07-02 16:08:00,68.8,54.0,30.03,NE,45,0.2,2.0,59,0.00,,,1.28,WSDL version 420,2013-07-02 06:08:00,
2013-07-02 16:13:00,68.3,53.9,30.03,ESE,113,0.5,2.5,60,0.00,,,1.28,WSDL version 420,2013-07-02 06:13:00,
2013-07-02 16:18:00,68.1,53.9,30.03,SE,135,1.2,2.7,61,0.00,,,1.28,WSDL version 420,2013-07-02 06:18:00,
2013-07-02 16:23:00,67.6,53.6,30.06,East,90,0.0,2.7,61,0.00,,,1.28,WSDL version 420,2013-07-02 06:23:00,
2013-07-02 16:28:00,67.2,53.8,30.06,SSW,199,0.0,1.3,62,0.00,,,1.28,WSDL version 420,2013-07-02 06:28:00,
2013-07-02 16:33:00,66.7,53.2,30.06,SSE,161,0.7,1.6,62,0.00,,,1.28,WSDL version 420,2013-07-02 06:33:00,
2013-07-02 16:38:00,65.6,53.1,30.03,South,188,0.0,1.6,65,-99.99,,,-99.99,WSDL version 420,2013-07-02 06:38:00,
2013-07-02 16:43:00,64.4,52.9,30.03,SSW,203,0.0,1.6,67,0.00,,,1.28,WSDL version 420,2013-07-02 06:43:00,
2013-07-02 16:48:00,63.1,52.3,30.03,SSW,212,0.0,0.0,69,0.00,,,1.28,WSDL version 420,2013-07-02 06:48:00,
2013-07-02 16:53:00,61.6,51.9,30.03,SSW,203,0.0,0.0,71,0.00,,,1.28,WSDL version 420,2013-07-02 06:53:00,
2013-07-02 16:58:00,60.4,51.5,30.03,SW,219,0.0,0.0,73,-99.99,,,-99.99,WSDL version 420,2013-07-02 06:58:00,
2013-07-02 17:03:00,59.2,50.5,30.03,SE,124,0.0,0.0,73,0.00,,,1.28,WSDL version 420,2013-07-02 07:03:00,
2013-07-02 17:08:00,58.4,50.9,30.03,ESE,113,0.0,0.0,77,0.00,,,1.28,WSDL version 420,2013-07-02 07:08:00,
2013-07-02 17:13:00,57.7,50.7,30.03,ESE,113,0.0,0.0,78,0.00,,,1.28,WSDL version 420,2013-07-02 07:13:00,
2013-07-02 17:18:00,57.2,51.4,30.03,SSE,158,0.0,0.0,82,-99.99,,,-99.99,WSDL version 420,2013-07-02 07:18:00,
2013-07-02 17:23:00,56.7,51.9,30.03,SSE,158,0.0,0.0,84,-99.99,,,-99.99,WSDL version 420,2013-07-02 07:23:00,
2013-07-02 17:28:00,56.1,51.8,30.03,SSE,158,0.0,0.0,86,0.00,,,1.28,WSDL version 420,2013-07-02 07:28:00,
2013-07-02 17:33:00,55.7,52.0,30.03,South,183,0.0,0.0,88,0.00,,,1.28,WSDL version 420,2013-07-02 07:33:00,
2013-07-02 17:38:00,55.2,52.1,30.03,SW,218,0.0,0.0,91,-99.99,,,-99.99,WSDL version 420,2013-07-02 07:38:00,
2013-07-02 17:43:00,54.9,52.1,30.03,East,90,0.0,1.1,90,0.00,,,1.28,WSDL version 420,2013-07-02 07:43:00,
2013-07-02 17:48:00,54.7,52.9,30.03,South,180,0.0,1.1,94,0.00,,,1.28,WSDL version 420,2013-07-02 07:48:00,
2013-07-02 17:53:00,54.3,52.9,30.03,West,280,0.3,1.1,96,0.00,,,1.28,WSDL version 420,2013-07-02 07:53:00,
2013-07-02 17:58:00,53.9,52.6,30.03,WNW,293,0.0,1.1,96,0.00,,,1.28,WSDL version 420,2013-07-02 07:58:00,
2013-07-02 18:03:00,53.6,52.7,30.03,WNW,293,0.0,0.0,97,0.00,,,1.28,WSDL version 420,2013-07-02 08:03:00,
2013-07-02 18:08:00,53.5,52.7,30.03,WNW,293,0.0,0.0,98,0.00,,,1.28,WSDL version 420,2013-07-02 08:08:00,
2013-07-02 18:13:00,53.1,52.5,30.03,WNW,293,0.0,0.0,98,0.00,,,1.28,WSDL version 420,2013-07-02 08:13:00,
2013-07-02 18:18:00,53.0,52.6,30.03,WNW,293,0.0,0.0,99,0.00,,,1.28,WSDL version 420,2013-07-02 08:18:00,
2013-07-02 18:23:00,52.7,52.4,30.06,WNW,293,0.0,0.0,99,-99.99,,,-99.99,WSDL version 420,2013-07-02 08:23:00,
2013-07-02 18:28:00,52.8,52.8,30.06,WNW,293,0.0,0.0,100,-99.99,,,-99.99,WSDL version 420,2013-07-02 08:28:00,
2013-07-02 18:33:00,52.5,52.5,30.06,WNW,293,0.0,0.0,100,0.00,,,1.28,WSDL version 420,2013-07-02 08:33:00,
2013-07-02 18:38:00,52.2,52.2,30.06,WNW,293,0.0,0.0,100,0.00,,,1.28,WSDL version 420,2013-07-02 08:38:00,
2013-07-02 18:43:00,52.4,52.4,30.06,WSW,239,0.0,0.0,100,0.00,,,1.28,WSDL version 420,2013-07-02 08:43:00,
2013-07-02 18:48:00,52.3,52.3,30.06,NW,315,0.3,1.6,100,0.00,,,1.28,WSDL version 420,2013-07-02 08:48:00,
2013-07-02 18:53:00,52.0,52.0,30.06,NW,315,0.0,1.6,100,0.00,,,1.28,WSDL version 420,2013-07-02 08:53:00,
2013-07-02 18:58:00,51.7,51.7,30.06,NW,315,0.0,0.0,100,0.00,,,1.28,WSDL version 420,2013-07-02 08:58:00,
2013-07-02 19:03:00,51.3,51.3,30.06,NW,315,0.0,0.0,100,0.00,,,1.28,WSDL version 420,2013-07-02 09:03:00,
2013-07-02 19:13:00,51.1,51.1,30.06,NW,315,0.0,0.0,100,0.00,,,1.28,WSDL version 420,2013-07-02 09:13:00,
2013-07-02 19:18:00,50.9,50.9,30.06,NW,315,0.0,0.0,100,0.00,,,1.28,WSDL version 420,2013-07-02 09:18:00,
2013-07-02 19:23:00,50.7,50.7,30.06,NW,315,0.0,0.0,100,0.00,,,1.28,WSDL version 420,2013-07-02 09:23:00,
2013-07-02 19:28:00,50.6,50.6,30.06,NW,315,0.0,0.0,100,0.00,,,1.28,WSDL version 420,2013-07-02 09:28:00,
2013-07-02 19:33:00,50.5,50.5,30.06,NW,315,0.0,0.0,100,0.00,,,1.28,WSDL version 420,2013-07-02 09:33:00,
2013-07-02 19:38:00,50.4,50.4,30.06,NW,315,0.0,0.0,100,0.00,,,1.28,WSDL version 420,2013-07-02 09:38:00,
2013-07-02 19:43:00,50.3,50.3,30.06,NW,315,0.0,0.0,100,0.00,,,1.28,WSDL version 420,2013-07-02 09:43:00,
2013-07-02 19:48:00,50.2,50.2,30.06,NW,315,0.0,0.0,100,0.00,,,1.28,WSDL version 420,2013-07-02 09:48:00,
2013-07-02 19:53:00,50.0,50.0,30.06,NW,315,0.0,0.0,100,0.00,,,1.28,WSDL version 420,2013-07-02 09:53:00,
2013-07-02 19:58:00,49.9,49.9,30.06,NW,315,0.0,0.0,100,0.00,,,1.28,WSDL version 420,2013-07-02 09:58:00,
2013-07-02 20:03:00,49.6,49.6,30.06,NW,315,0.0,0.0,100,0.00,,,1.28,WSDL version 420,2013-07-02 10:03:00,
2013-07-02 20:08:00,49.6,49.6,30.06,NW,315,0.0,0.0,100,0.00,,,1.28,WSDL version 420,2013-07-02 10:08:00,
2013-07-02 20:13:00,49.6,49.6,30.06,NW,315,0.0,0.0,100,0.00,,,1.28,WSDL version 420,2013-07-02 10:13:00,
2013-07-02 20:18:00,49.6,49.6,30.06,NW,315,0.0,0.0,100,0.00,,,1.28,WSDL version 420,2013-07-02 10:18:00,
2013-07-02 20:23:00,49.8,49.8,30.06,NW,315,0.0,0.0,100,0.00,,,1.28,WSDL version 420,2013-07-02 10:23:00,
2013-07-02 20:28:00,49.6,49.6,30.06,NW,315,0.0,0.0,100,0.00,,,1.28,WSDL version 420,2013-07-02 10:28:00,
2013-07-02 20:33:00,49.5,49.5,30.06,NW,315,0.0,0.0,100,0.00,,,1.28,WSDL version 420,2013-07-02 10:33:00,
2013-07-02 20:43:00,49.5,49.5,30.06,NW,315,0.0,0.0,100,0.00,,,1.28,WSDL version 420,2013-07-02 10:43:00,
2013-07-02 20:48:00,49.6,49.5,30.06,NW,315,0.0,0.0,100,-99.99,,,-99.99,WSDL version 420,2013-07-02 10:48:00,
2013-07-02 20:58:00,49.3,49.3,30.06,NW,315,0.0,0.0,100,0.00,,,1.28,WSDL version 420,2013-07-02 10:58:00,
2013-07-02 21:03:00,49.3,49.3,30.06,NW,315,0.0,0.0,100,0.00,,,1.28,WSDL version 420,2013-07-02 11:03:00,
2013-07-02 21:08:00,49.3,49.3,30.06,NW,315,0.0,0.0,100,0.00,,,1.28,WSDL version 420,2013-07-02 11:08:00,
2013-07-02 21:13:00,49.3,49.3,30.06,NW,315,0.0,0.0,100,0.00,,,1.28,WSDL version 420,2013-07-02 11:13:00,
2013-07-02 21:18:00,49.3,49.3,30.06,NW,315,0.0,0.0,100,0.00,,,1.28,WSDL version 420,2013-07-02 11:18:00,
2013-07-02 21:23:00,49.3,49.3,30.06,NW,315,0.0,0.0,100,0.00,,,1.28,WSDL version 420,2013-07-02 11:23:00,
2013-07-02 21:28:00,49.3,49.3,30.06,NW,315,0.0,0.0,100,0.00,,,1.28,WSDL version 420,2013-07-02 11:28:00,
2013-07-02 21:33:00,49.2,49.2,30.06,NW,315,0.0,0.0,100,0.00,,,1.28,WSDL version 420,2013-07-02 11:33:00,
2013-07-02 21:38:00,49.0,49.0,30.06,NW,315,0.0,0.0,100,0.00,,,1.28,WSDL version 420,2013-07-02 11:38:00,
2013-07-02 21:48:00,48.8,48.8,30.06,NW,315,0.0,0.0,100,0.00,,,1.28,WSDL version 420,2013-07-02 11:48:00,
2013-07-02 21:53:00,48.7,48.7,30.06,NW,315,0.0,0.0,100,0.00,,,1.28,WSDL version 420,2013-07-02 11:53:00,
2013-07-02 21:58:00,48.7,48.7,30.06,NW,315,0.0,0.0,100,0.00,,,1.28,WSDL version 420,2013-07-02 11:58:00,
2013-07-02 22:03:00,48.7,48.7,30.06,NW,315,0.0,0.0,100,0.00,,,1.28,WSDL version 420,2013-07-02 12:03:00,
2013-07-02 22:08:00,48.9,48.9,30.06,NW,315,0.0,0.0,100,-99.99,,,-99.99,WSDL version 420,2013-07-02 12:08:00,
2013-07-02 22:13:00,48.7,48.7,30.06,NW,315,0.0,0.0,100,0.00,,,1.28,WSDL version 420,2013-07-02 12:13:00,
2013-07-02 22:18:00,48.7,48.7,30.06,NW,315,0.0,0.0,100,0.00,,,1.28,WSDL version 420,2013-07-02 12:18:00,
2013-07-02 22:23:00,48.7,48.7,30.09,NW,315,0.0,0.0,100,0.00,,,1.28,WSDL version 420,2013-07-02 12:23:00,
2013-07-02 22:28:00,48.7,48.7,30.09,NW,315,0.0,0.0,100,0.00,,,1.28,WSDL version 420,2013-07-02 12:28:00,
2013-07-02 22:33:00,48.9,48.9,30.09,NW,315,0.0,0.0,100,0.00,,,1.28,WSDL version 420,2013-07-02 12:33:00,
2013-07-02 22:38:00,49.0,49.0,30.09,NW,315,0.0,0.0,100,-99.99,,,-99.99,WSDL version 420,2013-07-02 12:38:00,
2013-07-02 22:43:00,48.7,48.7,30.09,NW,315,0.0,0.0,100,0.00,,,1.28,WSDL version 420,2013-07-02 12:43:00,
2013-07-02 22:48:00,48.9,48.9,30.09,NW,315,0.0,0.0,100,0.00,,,1.28,WSDL version 420,2013-07-02 12:48:00,
2013-07-02 22:53:00,48.7,48.7,30.09,NW,315,0.0,0.0,100,0.00,,,1.28,WSDL version 420,2013-07-02 12:53:00,
2013-07-02 22:58:00,48.7,48.7,30.09,NW,315,0.0,0.0,100,0.00,,,1.28,WSDL version 420,2013-07-02 12:58:00,
2013-07-02 23:03:00,48.7,48.6,30.09,NW,315,0.0,0.0,100,0.00,,,1.28,WSDL version 420,2013-07-02 13:03:00,
2013-07-02 23:08:00,48.4,48.4,30.09,NW,315,0.0,0.0,100,0.00,,,1.28,WSDL version 420,2013-07-02 13:08:00,
2013-07-02 23:13:00,48.5,48.5,30.09,NW,315,0.0,0.0,100,0.00,,,1.28,WSDL version 420,2013-07-02 13:13:00,
2013-07-02 23:18:00,48.4,48.4,30.09,NW,315,0.0,0.0,100,0.00,,,1.28,WSDL version 420,2013-07-02 13:18:00,
2013-07-02 23:23:00,48.5,48.5,30.09,NW,315,0.0,0.0,100,0.00,,,1.28,WSDL version 420,2013-07-02 13:23:00,
2013-07-02 23:28:00,48.6,48.6,30.09,NW,315,0.0,0.0,100,0.00,,,1.28,WSDL version 420,2013-07-02 13:28:00,
2013-07-02 23:33:00,48.7,48.6,30.09,NW,315,0.0,0.0,100,0.00,,,1.28,WSDL version 420,2013-07-02 13:33:00,
2013-07-02 23:38:00,48.9,48.9,30.09,NW,315,0.0,0.0,100,0.00,,,1.28,WSDL version 420,2013-07-02 13:38:00,
2013-07-02 23:43:00,49.3,49.3,30.09,NW,315,0.0,0.0,100,0.00,,,1.28,WSDL version 420,2013-07-02 13:43:00,
2013-07-02 23:48:00,49.5,49.5,30.09,NW,315,0.0,0.0,100,0.00,,,1.28,WSDL version 420,2013-07-02 13:48:00,
2013-07-02 23:53:00,49.4,49.4,30.06,NW,315,0.0,0.0,100,0.00,,,1.28,WSDL version 420,2013-07-02 13:53:00,
2013-07-02 23:58:00,49.5,49.5,30.06,NW,315,0.0,0.0,100,0.00,,,1.28,WSDL version 420,2013-07-02 13:58:00,